Starlink 30473

operational
NORAD ID: 57893 Int'l Des: 2023-146 Owner: SPXS Country: US Constellation: starlink
LEOCIRCULAR

Über Starlink 30473

Beschreibung wird geladen...

Live-Position

3D-Globus wird geladen...

Nächste Überflüge

Höhenverlauf

Altitude vs Time

uPlot chart will show altitude changes over time

Zweizeiliger Elementsatz

1 57893U 23146C 25304.03395911 .00000944 00000-0 84954-4 0 9994
2 57893 43.0044 297.7183 0001620 280.5576 79.5084 15.02532038117560
Epoch: 31. Okt. 2025 • Age: 13 hours

Aktueller Status

Höhe 558.6 km
Geschwindigkeit 7.59 km/s
Subsatellitenpunkt 18.90°N, 70.55°E
Startdatum 20. Sept. 2023
Alter 2.1 years
Typ internet

Technische Details

Klassifizierung Payload
Masse 730.00 kg
Trockenmasse 700.00 kg
Gesamtmasse 730.00 kg
Länge 0.30 m
Durchmesser 4.10 m
Spannweite 29.00 m
Form Box + pan
Hersteller SPXS
Bus-Typ Starlink V2M
Phasenstatus In Orbit
Besitzer/Staat SPXS/US

Große Konstellationen

Loading constellations...